Hors Challenge

Scott Xtrails - Houffalize (23.00 km)

01 mai <> 02 mai 2021

Vous pouvez trouver Le classement original sur : https://my.raceresult.com
 
SCOTT XTRAILS - HOUFFALIZE
DISTANCE : 23.00 km
01 mai <> 02 mai 2021
 
Place dos NOM Catégorie Pl/cat temps temps/km Vitesse
01:00:00              
1 3528 NOAH THÖSEN SH 1 1:43:55 04:31 13.28
2 3327 JOREN LEYSEN SH 2 1:44:08 04:32 13.25
3 3250 ARNAUD LOUVRIER SH 3 1:46:23 04:38 12.97
4 7449 JÉRÔME LAFFINEUR SH 4 1:53:33 04:56 12.15
5 3532 RENAUD LEQUEUX SH 5 1:55:48 05:02 11.92
6 209 JOÃO MARQUES CASTANHEIRA V2 1 1:56:25 05:04 11.85
7 7433 AUGUSTIN VAN EECKE SH 6 1:57:52 05:07 11.71
8 3043 MICHAEL DELPERDANGE SH 7 1:59:28 05:12 11.55
9 3244 TIM HEYMANS SH 8 2:00:32 05:14 11.45
10 3463 TOM WEYER SH 9 2:03:11 05:21 11.20
11 3246 BENNY KERCKHOVEN V1 1 2:03:38 05:23 11.16
12 3534 GUILLAUME BARBERON SH 10 2:05:44 05:28 10.98
13 3614 THIERRY DONDLINGER V1 2 2:05:53 05:28 10.96
14 542 WOUTER TAMPÈRE SH 11 2:06:30 05:30 10.91
15 3357 YANNICK DE BOECK SH 12 2:06:50 05:31 10.88
16 3034 EVERT THYS SH 13 2:07:24 05:32 10.83
17 7447 CHRISTOPHER TIMMERMAN SH 14 2:07:30 05:33 10.82
18 3578 FRANK RUPPERT V1 3 2:09:58 05:39 10.62
19 3358 PIERRE YVES RENQUIN SH 15 2:09:58 05:39 10.62
20 5251 FRANÇOIS DESTREBECQ V1 4 2:10:20 05:40 10.59
21 3539 WILJO ERMERS V1 5 2:11:06 05:42 10.53
22 5249 OLIVIER DULON V2 2 2:11:14 05:42 10.52
23 3231 THOMAS PAPAZOV SH 16 2:11:49 05:44 10.47
24 389 JOLAN VAEL SH 17 2:12:15 05:45 10.43
25 279 FREDERIC GRAUMANN V1 6 2:12:45 05:46 10.40
26 438 JEREMY VAN OPHEM SH 18 2:12:46 05:46 10.39
27 3148 OLIVIER DELFORTRIE SH 19 2:12:57 05:47 10.38
28 3077 OLIVIER MAHIEU SH 20 2:13:22 05:48 10.35
29 3256 SVEN DE CLEYN SH 21 2:13:45 05:49 10.32
30 3615 ANJA DZIADEK SD 1 2:14:04 05:50 10.29
31 3516 ROBERTH BEKAERT SH 22 2:14:28 05:51 10.26
32 3225 STEVEN HEYLEN SH 23 2:14:42 05:51 10.24
33 548 KOEN VERBRUGGEN SH 24 2:14:43 05:51 10.24
34 7435 HENRI HOUTART SH 25 2:14:49 05:52 10.24
35 3333 GAETAN TIMMERMANS SH 26 2:14:57 05:52 10.23
36 3120 STEVEN DEPREITERE SH 27 2:15:00 05:52 10.22
37 498 JASPER DE COOMAN SH 28 2:15:00 05:52 10.22
38 5250 FRANÇOIS DEGREZ SH 29 2:15:19 05:53 10.20
39 3338 GUIDO VAN HELLEPUTTE V2 3 2:15:26 05:53 10.19
40 3163 JAN DE BAETS V1 7 2:15:46 05:54 10.16
41 3175 JORAM VAN HOLEN SH 30 2:15:48 05:54 10.16
42 3545 WOUTER CORTENS SH 31 2:15:49 05:54 10.16
43 3622 GUNTHER GEYSEN V1 8 2:15:56 05:55 10.15
44 3457 CLAUDE BERG V1 9 2:16:15 05:55 10.13
45 239 KIM KARLSSON V1 10 2:16:24 05:56 10.12
46 227 BJORN DE WINTER SH 32 2:18:12 06:01 9.99
47 3536 JÉRÉMY PLACE SH 33 2:18:33 06:01 9.96
48 3558 JEAN-PHILIPPE THOLL V1 11 2:18:40 06:02 9.95
49 299 DRIES CRAEGHS SH 34 2:19:38 06:04 9.88
50 3259 LANCELOT STEISEL SH 35 2:19:51 06:05 9.87
51 7448 MICK VERBRUGGEN SH 36 2:19:59 06:05 9.86
52 3095 CHRISTIAN FALISE V1 12 2:20:15 06:06 9.84
53 193 MAIKEL SIMAYS SH 37 2:20:33 06:07 9.82
54 3171 ROMARIC ANGENOT SH 38 2:20:35 06:07 9.82
55 3170 LOÏC DEMONTY SH 39 2:20:35 06:07 9.82
56 161 SVEN HAYEN V1 13 2:20:41 06:07 9.81
57 410 NIGEL ANDRIES V1 14 2:21:27 06:09 9.76
58 7440 GILDAS LEBRUN SH 40 2:21:46 06:10 9.73
59 374 STÉPHANE VANDENHOVE V1 15 2:22:42 06:12 9.67
60 3052 FRANK LINTERMANS V1 16 2:22:49 06:13 9.66
61 3266 SERGE MOL V1 17 2:22:52 06:13 9.66
62 208 MATHIJS LIEBENS SH 41 2:23:06 06:13 9.64
63 3215 KOEN DENO SH 42 2:23:21 06:14 9.63
64 273 JESSICA DAMS SD 2 2:23:35 06:15 9.61
65 24 JONATHAN VAN CAER SH 43 2:23:35 06:15 9.61
66 3313 MAXIME CHOFFRAY SH 44 2:24:13 06:16 9.57
67 3509 FLORENT DE LIEDEKERKE SH 45 2:24:18 06:16 9.56
68 3508 THOMAS LEPERS SH 46 2:24:19 06:16 9.56
69 3515 MATHIEU DHAENENS SH 47 2:24:47 06:18 9.53
70 418 YVES VANDERSTRAETEN V1 18 2:25:20 06:19 9.50
71 3355 MARC CASTERMANS V1 19 2:25:25 06:19 9.49
72 5254 DIETER VAN GOOL V1 20 2:25:39 06:20 9.47
73 7450 ELIO WEYTS SH 48 2:26:32 06:22 9.42
74 3370 MANU VERSCHAEREN SH 49 2:26:33 06:22 9.42
75 219 JEF VANENDERT SH 50 2:26:59 06:23 9.39
76 3282 KRISTOF ONCKELINX V1 21 2:27:13 06:24 9.37
77 3135 BENOIT LIÉVIN SH 51 2:28:09 06:26 9.31
78 3164 KRISTOF VAN HERCK SH 52 2:28:40 06:28 9.28
79 3195 PAUL VERMEULEN V2 4 2:28:42 06:28 9.28
80 3166 VINCENT TOTTÉ SH 53 2:29:12 06:29 9.25
81 3326 CHRISTOPHE VAN CRAEN V1 22 2:29:21 06:30 9.24
82 13 VINCENT RIGOUTS SH 54 2:29:36 06:30 9.22
83 3464 IRINA FEDOROVA A1 1 2:29:45 06:31 9.22
84 275 PIETERJAN MAES SH 55 2:30:12 06:32 9.19
85 3371 ENGIN BAYRAM SH 56 2:30:14 06:32 9.19
86 3372 CARMEN MINTEN SD 3 2:30:17 06:32 9.18
87 568 MANUEL BLOMMAERT SH 57 2:30:19 06:32 9.18
88 3277 BERTRAND WAVREILLE V1 23 2:30:39 06:33 9.16
89 68 DIETER MACHIELS SH 58 2:30:43 06:33 9.16
90 3055 JULIEN BOSQUILLON SH 59 2:31:02 06:34 9.14
91 3311 CHRISTOPHE SCHILTZ V2 5 2:31:14 06:35 9.12
92 578 PETER VANHOEGAERDEN V2 6 2:31:23 06:35 9.12
93 3312 RAPHAEL CHRISTOPHE V1 24 2:31:25 06:35 9.11
94 5248 STIJN VISSERS SH 60 2:31:53 06:36 9.09
95 3094 KOEN DAALMAN V1 25 2:32:03 06:37 9.08
96 3491 FRANS GEURTS V1 26 2:32:29 06:38 9.05
97 3382 CEDRIC ZAWARSKI V1 27 2:32:38 06:38 9.04
98 3456 MATTHEW WHITING V1 28 2:32:39 06:38 9.04
99 3368 ELS BUYL SD 4 2:32:40 06:38 9.04
100 5278 WOUTER VANDORPE SH 61 2:32:43 06:38 9.04
101 3092 IVAN DE MEUNYNCK SH 62 2:32:49 06:39 9.03
102 41 TINA VAN DER AUWERA SD 5 2:32:54 06:39 9.03
103 3235 PHILIPPE FRENNET SH 63 2:33:21 06:40 9.00
104 5256 TOON VANWEZER SH 64 2:34:32 06:43 8.93
105 573 TOM DHOOGHE V1 29 2:37:00 06:50 8.79
106 3299 SEPPE BOGHE SH 65 2:37:10 06:50 8.78
107 3298 STEVE MARTENS V1 30 2:37:13 06:50 8.78
108 574 LENKA SEMRADOVA SD 6 2:37:20 06:50 8.77
109 3400 FLORENCE ZUCCKI A1 2 2:38:09 06:53 8.73
110 3071 SARAH CHAUVIN A1 3 2:38:10 06:53 8.72
111 3579 EMILIA TALIGOVA A1 4 2:38:11 06:53 8.72
112 3547 NATALIA FOKINA A2 1 2:38:20 06:53 8.72
113 3323 LIONEL FABRE V1 31 2:38:31 06:54 8.71
114 3108 NICOLAS HOST V1 32 2:38:32 06:54 8.70
115 330 LAURA LOUISE KAPPELLE SD 7 2:38:41 06:54 8.70
116 3257 TOM VANLANGENDIJCK SH 66 2:38:51 06:54 8.69
117 3122 KATHLEEN STEENHAUT A2 2 2:40:07 06:58 8.62
118 3290 CHRIS HELLEBAUT V2 7 2:40:12 06:58 8.61
119 92 LIES DECROUBELE A1 5 2:40:28 06:59 8.60
120 258 ITSKE LOOMANS A1 6 2:40:31 06:59 8.60
121 249 DIMITRI ROGIERS V1 33 2:40:44 06:59 8.59
122 3085 SVEN DE BRUYN V2 8 2:40:46 06:59 8.58
123 3084 BART COLLET V2 9 2:40:46 06:59 8.58
124 248 SAMUEL GALLE SH 67 2:41:01 07:00 8.57
125 3070 FEI VANDEWEGHE SD 8 2:41:02 07:00 8.57
126 358 YIORGOS KARVOUNIS V1 34 2:41:15 07:01 8.56
127 307 MELANIE ROELANDT SD 9 2:41:22 07:01 8.55
128 3459 FRÉDÉRIQUE LÉONARD SD 10 2:42:44 07:05 8.48
129 3458 CATHERINE LORANG SD 11 2:42:44 07:05 8.48
130 388 SYLVIE AMELOOT A1 7 2:42:48 07:05 8.48
131 3133 INGE VANHOVE A1 8 2:42:50 07:05 8.47
132 213 NILS VAN DE VELDEN V1 35 2:42:54 07:05 8.47
133 58 STIJN BELMANS XXX   2:42:56 07:05 8.47
134 3279 JOERI JANUARIUS SH 68 2:43:26 07:06 8.44
135 3232 VINCENT MÉLOT SH 69 2:43:31 07:07 8.44
136 3254 JEF CLAES SH 70 2:43:49 07:07 8.42
137 3546 GEORGY SINELSHCHIKOV V2 10 2:43:54 07:08 8.42
138 3580 MARC HENSSEN V2 11 2:44:12 07:08 8.40
139 173 ANDREAS VOET V1 36 2:44:39 07:10 8.38
140 3325 ADELINE MAREZ SD 12 2:44:50 07:10 8.37
141 104 SANDER VAN GOOL SH 71 2:45:31 07:12 8.34
142 3165 KEVIN VAN DONINCK SH 72 2:45:32 07:12 8.34
143 3344 JORIS DE VOGHT V1 37 2:45:48 07:13 8.32
144 441 KRISTOF DE NEEF V1 38 2:47:02 07:16 8.26
145 3253 NILS HEURCKMANS SH 73 2:47:08 07:16 8.26
146 3216 KOEN SEGERS V1 39 2:47:25 07:17 8.24
147 396 ERIC GILLIS V2 12 2:47:26 07:17 8.24
148 3505 GIANLUCA RATTACASO SH 74 2:47:56 07:18 8.22
149 3149 GERT LEFEVRE V2 13 2:47:59 07:18 8.22
150 272 BOB VISSENBERG SH 75 2:49:08 07:21 8.16
151 3038 PIERRE HALUT V1 40 2:49:17 07:22 8.15
152 3314 ARNE DE PROFT SH 76 2:49:34 07:22 8.14
153 5262 JOHNATHAN VERMEERSCH V1 41 2:50:07 07:24 8.11
154 25 PHILIPPE LEVY V2 14 2:51:33 07:28 8.04
155 3341 BART CUYPERS V1 42 2:51:44 07:28 8.04
156 3533 CHARLYNE HANCK SD 13 2:51:51 07:28 8.03
157 3537 FLORENCE DEVILLET SD 14 2:51:54 07:28 8.03
158 3088 STIJN ADAMS SH 77 2:52:12 07:29 8.01
159 3 ARVID VERRETH V1 43 2:52:15 07:29 8.01
160 3207 VIOLA DI GIOVANNI SD 15 2:52:19 07:30 8.01
161 3161 SERGE HERMAN V2 15 2:52:22 07:30 8.01
162 412 FILIP CASTELYNS SH 78 2:52:30 07:30 8.00
163 3208 MIKAEL TORFS V1 44 2:53:37 07:33 7.95
164 3247 PASCAL KERCKHOVEN V1 45 2:55:22 07:37 7.87
165 3245 RAF KERCKHOVEN SH 79 02:55:35 07:38 7.86
166 3198 GITTE MONDELAERS JF 1 02:55:50 07:39 7.85
167 5252 CHRISTEL HANUISE A1 9 02:56:32 07:41 7.82
168 3229 JEAN-BENOIT DEMELENNE SH 80 02:57:02 07:42 7.80
169 3523 SOUMINA CICCARELLI A1 10 02:57:10 07:42 7.79
170 3522 CHRISTOPHE MUSEUR SH 81 02:57:13 07:42 7.79
171 3227 BURGEMEESTER VAN RONSE SH 82 02:57:19 07:43 7.78
172 3226 CAMILLE PICALAUSA SD 16 02:57:20 07:43 7.78
173 3591 LENKA MRAZKOVA SD 17 02:59:27 07:48 7.69
174 3197 JOHAN MONDELAERS V2 16 03:00:56 07:52 7.63
175 3588 NATHALIE VICO SD 18 03:01:10 07:53 7.62
176 3577 CÉLINE JOIE SD 19 03:01:11 07:53 7.62
177 117 DIRK SUYKENS V2 17 03:03:49 08:00 7.51
178 3039 CHRISTIAN GILLET V2 18 03:04:29 08:01 7.48
179 3152 NELE VAN GINDERACHTER SD 20 03:04:51 08:02 7.47
180 3101 PHILIP VANVOORDEN V2 19 03:04:56 08:02 7.46
181 3620 MAXIME VERHULST V1 46 03:05:12 08:03 7.45
182 177 KURT CATRY V1 47 03:06:07 08:06 7.41
183 199 HANS VAN DEN PLAS SH 83 03:06:27 08:06 7.40
184 3102 JUAN CARLOS ORTUNO V1 48 03:06:44 08:07 7.39
185 3255 WARD BELLEN SH 84 03:07:00 08:08 7.38
186 3220 DIMITRI DEVREESE V1 49 03:07:58 08:10 7.34
187 3605 KIM ALEWATERS SH 85 03:08:33 08:12 7.32
188 3305 KRIS BOULEZ V2 20 03:09:53 08:15 7.27
189 311 STEFAAN GOVAERT V1 50 03:11:46 08:20 7.20
190 3308 EKATERINA KAZAKOVA SD 21 03:16:51 08:34 7.01
191 3099 YANN RIEUNEAUD V1 51 03:18:40 08:38 6.95
192 3391 DAVID MOSTINCKX V1 52 03:18:49 08:39 6.94
193 3496 KOERT RUIKEN V2 21 03:22:15 08:48 6.82
194 563 PASCAL THIOUX V1 53 03:24:31 08:54 6.75
195 564 ALEXANDRA DACHELET SD 22 03:25:34 08:56 6.71
196 320 BART VERHAEVERT V1 54 03:27:43 09:02 6.64
197 436 HILDE DE BONDT A1 11 03:28:15 09:03 6.63
198 3386 RAYMOND DE LOOSE V2 22 03:29:17 09:06 6.59
199 3385 ANNEKE ZAJTMANN A1 12 03:29:23 09:06 6.59
200 3228 GAEL KESENNE V1 55 03:34:47 09:20 6.43
201 3520 JEAN NESLANY V3 1 03:40:40 09:36 6.25
202 3283 BART VERBESSEM SH 86 03:42:02 09:39 6.22
203 3285 JULIE VAN DE VELDE SD 23 03:42:04 09:39 6.21
204 3286 MAARTEN OSTE SH 87 03:42:05 09:39 6.21
205 3284 GEERT SCHELSTRAETE SH 88 03:42:05 09:39 6.21
206 390 JAN VANDEBORNE V3 2 03:48:21 09:56 6.04
207 3575 GUNTHER VAN LOON V1 56 05:34:29 14:33 4.13